Location: Chiroubles
(46.1812°N, 4.6660°E)
Time: 01:52:35
(UTC+00:00)

Cosmos 1500 - Pass Details

Date: 15 August 2020
Orbit: 500 x 518 km, 82.5° (Epoch: 19 September)

Event Time Altitude Azimuth Distance (km) Brightness Sun altitude
Exits shadow 20:25:31 23° 92° (E) 1,106 4.4 -15.1°
Maximum altitude 20:25:37 23° 89° (E) 1,105 4.4 -15.2°
Drops below altitude 10° 20:28:37 10° 36° (NE) 1,719 5.9 -15.6°
Sets 20:31:03 0° 22° (NNE) 2,612 7.0 -15.9°
